Location: Betzi
(47.2343°N, 9.5260°E)
Time: 23:55:52
(UTC+00:00)

ADEOS II - Pass Details

Date: 27 May 2022
Orbit: 798 x 801 km, 98.6° (Epoch: 26 June)

Event Time Altitude Azimuth Distance (km) Brightness Sun altitude
Rises 01:10:26 0° 18° (NNE) 3,318 7.0 -17.0°
Reaches altitude 10° 01:12:50 10° 23° (NNE) 2,383 5.9 -16.9°
Maximum altitude 01:17:59 53° 100° (E) 978 2.6 -16.4°
Enters shadow 01:21:42 18° 172° (S) 1,853 3.5 -16.1°
